This is the latest recevied weather packets stored in our database for station/object W4NDF-13. If no packets are shown the sender has not sent any weather packets the latest 10 day(s).
| Time | Temp. | Humidity | Pressure | Rain* | Wind** | Luminosity | Snow |
|---|---|---|---|---|---|---|---|
| 1777805629 | 11.67° C | 85% | 1021.3 hPa | 0 mm | - | 0 W/m² | - |
| 1777805327 | 11.67° C | 84% | 1021.2 hPa | 0 mm | - | 0 W/m² | - |
| 1777805024 | 11.67° C | 84% | 1021.4 hPa | 0 mm | - | 0 W/m² | - |
| 1777804721 | 12.22° C | 83% | 1021.4 hPa | 0 mm | - | 0 W/m² | - |
| 1777804419 | 12.22° C | 83% | 1021.3 hPa | 0 mm | - | 0 W/m² | - |
| 1777804116 | 12.22° C | 82% | 1021.2 hPa | 0 mm | - | 0 W/m² | - |
| 1777803813 | 12.22° C | 83% | 1021.3 hPa | 0 mm | - | 0 W/m² | - |
| 1777803508 | 11.67° C | 82% | 1021.3 hPa | 0 mm | - | 0 W/m² | - |
| 1777803207 | 12.22° C | 81% | 1021.3 hPa | 0 mm | - | 0 W/m² | - |
| 1777802903 | 12.78° C | 80% | 1021.5 hPa | 0 mm | - | 0 W/m² | - |
| 1777802601 | 12.78° C | 80% | 1021.4 hPa | 0 mm | - | 0 W/m² | - |
| 1777802299 | 12.78° C | 78% | 1021.5 hPa | 0 mm | - | 0 W/m² | - |
| 1777801997 | 13.33° C | 77% | 1021.3 hPa | 0 mm | - | 0 W/m² | - |
| 1777801694 | 13.33° C | 76% | 1021 hPa | 0 mm | - | 0 W/m² | - |
| 1777801391 | 13.33° C | 76% | 1021.5 hPa | 0 mm | - | 0 W/m² | - |
| 1777801088 | 13.33° C | 77% | 1021.6 hPa | 0 mm | - | 0 W/m² | - |
| 1777800785 | 13.33° C | 76% | 1021.6 hPa | 0 mm | - | 0 W/m² | - |
| 1777800480 | 13.33° C | 76% | 1021.5 hPa | 0 mm | - | 0 W/m² | - |
| 1777800177 | 13.33° C | 75% | 1021.4 hPa | 0 mm | - | 0 W/m² | - |
| 1777799876 | 13.33° C | 74% | 1021.4 hPa | 0 mm | - | 0 W/m² | - |
| 1777799574 | 13.89° C | 72% | 1021.2 hPa | 0 mm | - | 0 W/m² | - |
| 1777799270 | 13.89° C | 70% | 1021.3 hPa | 0 mm | - | 0 W/m² | - |
| 1777798966 | 14.44° C | 69% | 1021.1 hPa | 0 mm | - | 0 W/m² | - |
| 1777798662 | 15° C | 68% | 1021.4 hPa | 0 mm | - | 0 W/m² | - |
| 1777798359 | 15° C | 67% | 1021.3 hPa | 0 mm | - | 0 W/m² | - |
* Rain latest hour (hover to see other rain measurements)
** Current wind speed in m/s (hover to see current wind gust speed)